Time,TemperatureF,DewpointF,PressureIn,WindDirection,WindDirectionDegrees,WindSpeedMPH,WindSpeedGustMPH,Humidity,HourlyPrecipIn,Conditions,Clouds,dailyrainin,SoftwareType,DateUTC
2013-07-13 00:09:00,72.1,70.0,29.96,ENE,74,1.0,2.0,93,0.00,,,0.00,weatherlink.com 1.10,2013-07-13 04:09:00,
2013-07-13 00:24:00,72.0,70.0,29.97,NE,42,0.0,3.0,92,0.00,,,0.00,weatherlink.com 1.10,2013-07-13 04:24:00,
2013-07-13 00:39:00,71.9,70.0,29.96,NNW,345,0.0,3.0,92,0.00,,,0.00,weatherlink.com 1.10,2013-07-13 04:39:00,
2013-07-13 00:54:00,71.7,69.0,29.96,NNW,346,0.0,2.0,92,0.00,,,0.00,weatherlink.com 1.10,2013-07-13 04:54:00,
2013-07-13 01:09:00,71.5,69.0,29.97,WNW,294,0.0,1.0,93,0.00,,,0.00,weatherlink.com 1.10,2013-07-13 05:09:00,
2013-07-13 01:24:00,71.3,69.0,29.97,WNW,294,0.0,0.0,93,0.00,,,0.00,weatherlink.com 1.10,2013-07-13 05:24:00,
2013-07-13 01:39:00,71.1,69.0,29.97,WNW,294,0.0,1.0,94,0.00,,,0.00,weatherlink.com 1.10,2013-07-13 05:39:00,
2013-07-13 01:54:00,70.9,69.0,29.97,WNW,294,0.0,1.0,94,0.00,,,0.00,weatherlink.com 1.10,2013-07-13 05:54:00,
2013-07-13 02:09:00,70.9,69.0,29.97,NNW,346,0.0,2.0,94,0.00,,,0.00,weatherlink.com 1.10,2013-07-13 06:09:00,
2013-07-13 02:24:00,70.8,69.0,29.98,NNE,32,0.0,0.0,94,0.00,,,0.00,weatherlink.com 1.10,2013-07-13 06:24:00,
2013-07-13 02:39:00,70.8,69.0,29.98,NNE,15,0.0,1.0,95,0.00,,,0.00,weatherlink.com 1.10,2013-07-13 06:39:00,
2013-07-13 02:54:00,70.8,69.0,29.98,NNE,17,0.0,2.0,94,0.00,,,0.00,weatherlink.com 1.10,2013-07-13 06:54:00,
2013-07-13 03:09:00,70.7,69.0,29.98,NNE,13,0.0,1.0,94,0.00,,,0.00,weatherlink.com 1.10,2013-07-13 07:09:00,
2013-07-13 03:24:00,70.6,69.0,29.98,NNE,13,0.0,1.0,94,0.00,,,0.00,weatherlink.com 1.10,2013-07-13 07:24:00,
2013-07-13 03:39:00,70.6,69.0,29.98,North,5,0.0,2.0,95,0.00,,,0.00,weatherlink.com 1.10,2013-07-13 07:39:00,
2013-07-13 03:54:00,70.5,69.0,29.98,NW,318,0.0,1.0,95,0.00,,,0.00,weatherlink.com 1.10,2013-07-13 07:54:00,
2013-07-13 04:09:00,70.4,69.0,29.98,NW,318,0.0,1.0,95,0.00,,,0.00,weatherlink.com 1.10,2013-07-13 08:09:00,
2013-07-13 04:25:00,70.4,69.0,29.98,NNE,17,0.0,1.0,95,0.00,,,0.00,weatherlink.com 1.10,2013-07-13 08:25:00,
2013-07-13 04:40:00,70.3,69.0,29.98,NNE,22,0.0,2.0,95,0.00,,,0.00,weatherlink.com 1.10,2013-07-13 08:40:00,
2013-07-13 04:55:00,70.3,69.0,29.98,NE,46,0.0,2.0,95,0.00,,,0.00,weatherlink.com 1.10,2013-07-13 08:55:00,
2013-07-13 05:10:00,70.2,69.0,29.98,NNW,344,2.0,2.0,96,0.00,,,0.00,weatherlink.com 1.10,2013-07-13 09:10:00,
2013-07-13 05:25:00,70.2,69.0,29.98,NW,306,0.0,2.0,96,0.00,,,0.00,weatherlink.com 1.10,2013-07-13 09:25:00,
2013-07-13 05:40:00,70.2,69.0,29.98,NE,55,1.0,2.0,96,0.00,,,0.00,weatherlink.com 1.10,2013-07-13 09:40:00,
2013-07-13 05:55:00,70.2,69.0,29.98,NW,310,0.0,4.0,96,0.00,,,0.00,weatherlink.com 1.10,2013-07-13 09:55:00,
2013-07-13 06:10:00,70.2,69.0,29.98,NW,315,0.0,2.0,96,0.00,,,0.00,weatherlink.com 1.10,2013-07-13 10:10:00,
2013-07-13 06:25:00,70.2,69.0,29.98,ENE,63,1.0,1.0,96,0.00,,,0.00,weatherlink.com 1.10,2013-07-13 10:25:00,
2013-07-13 06:40:00,70.2,69.0,29.99,NE,56,0.0,1.0,95,0.00,,,0.00,weatherlink.com 1.10,2013-07-13 10:40:00,
2013-07-13 06:55:00,70.2,69.0,29.99,NNE,14,0.0,3.0,96,0.00,,,0.00,weatherlink.com 1.10,2013-07-13 10:55:00,
2013-07-13 07:10:00,70.2,69.0,30.00,East,80,0.0,2.0,96,0.00,,,0.00,weatherlink.com 1.10,2013-07-13 11:10:00,
2013-07-13 07:25:00,70.3,69.0,30.01,ENE,63,1.0,3.0,96,0.00,,,0.00,weatherlink.com 1.10,2013-07-13 11:25:00,
2013-07-13 07:40:00,70.4,69.0,30.02,WNW,297,0.0,3.0,96,0.00,,,0.00,weatherlink.com 1.10,2013-07-13 11:40:00,
2013-07-13 07:55:00,70.4,69.0,30.02,NNW,332,1.0,1.0,96,0.00,,,0.00,weatherlink.com 1.10,2013-07-13 11:55:00,
2013-07-13 08:10:00,70.6,69.0,30.02,NNE,16,0.0,2.0,95,0.00,,,0.00,weatherlink.com 1.10,2013-07-13 12:10:00,
2013-07-13 08:25:00,71.0,70.0,30.02,NE,53,1.0,3.0,95,0.00,,,0.00,weatherlink.com 1.10,2013-07-13 12:25:00,
2013-07-13 08:40:00,71.5,70.0,30.03,West,266,0.0,3.0,94,0.00,,,0.00,weatherlink.com 1.10,2013-07-13 12:40:00,
2013-07-13 08:55:00,71.8,70.0,30.03,East,85,0.0,5.0,93,0.00,,,0.00,weatherlink.com 1.10,2013-07-13 12:55:00,
2013-07-13 09:10:00,72.2,70.0,30.03,East,96,0.0,2.0,93,0.00,,,0.00,weatherlink.com 1.10,2013-07-13 13:10:00,
2013-07-13 09:25:00,72.6,71.0,30.04,NNE,24,0.0,2.0,93,0.00,,,0.00,weatherlink.com 1.10,2013-07-13 13:25:00,
2013-07-13 09:40:00,73.1,71.0,30.04,NNE,15,2.0,4.0,92,0.00,,,0.00,weatherlink.com 1.10,2013-07-13 13:40:00,
2013-07-13 09:55:00,73.5,71.0,30.05,NE,56,1.0,3.0,91,0.00,,,0.00,weatherlink.com 1.10,2013-07-13 13:55:00,
2013-07-13 10:10:00,73.7,71.0,30.05,East,100,1.0,3.0,91,0.00,,,0.00,weatherlink.com 1.10,2013-07-13 14:10:00,
2013-07-13 10:25:00,73.8,71.0,30.04,NW,321,0.0,2.0,90,0.00,,,0.00,weatherlink.com 1.10,2013-07-13 14:25:00,
2013-07-13 10:40:00,73.9,71.0,30.05,NNE,13,1.0,2.0,89,0.00,,,0.00,weatherlink.com 1.10,2013-07-13 14:40:00,
2013-07-13 10:55:00,73.7,71.0,30.06,NNE,21,0.0,2.0,90,0.00,,,0.00,weatherlink.com 1.10,2013-07-13 14:55:00,
2013-07-13 11:10:00,73.8,71.0,30.06,North,5,0.0,3.0,90,0.00,,,0.00,weatherlink.com 1.10,2013-07-13 15:10:00,
2013-07-13 11:25:00,74.0,71.0,30.06,NNW,336,2.0,2.0,91,0.00,,,0.00,weatherlink.com 1.10,2013-07-13 15:25:00,
2013-07-13 11:40:00,74.4,71.0,30.06,ENE,76,0.0,3.0,90,0.00,,,0.00,weatherlink.com 1.10,2013-07-13 15:40:00,
2013-07-13 11:55:00,74.5,72.0,30.07,NW,317,0.0,3.0,90,0.00,,,0.00,weatherlink.com 1.10,2013-07-13 15:55:00,
2013-07-13 12:10:00,74.5,72.0,30.07,NNE,24,0.0,2.0,90,0.00,,,0.00,weatherlink.com 1.10,2013-07-13 16:10:00,
2013-07-13 12:25:00,74.9,72.0,30.07,NE,40,0.0,2.0,91,0.00,,,0.00,weatherlink.com 1.10,2013-07-13 16:25:00,
2013-07-13 12:40:00,75.3,72.0,30.06,NE,49,0.0,3.0,89,0.00,,,0.00,weatherlink.com 1.10,2013-07-13 16:40:00,
2013-07-13 12:55:00,75.8,72.0,30.06,NW,313,0.0,1.0,88,0.00,,,0.00,weatherlink.com 1.10,2013-07-13 16:55:00,
2013-07-13 13:10:00,75.7,72.0,30.05,ENE,64,0.0,1.0,89,0.00,,,0.00,weatherlink.com 1.10,2013-07-13 17:10:00,
2013-07-13 13:25:00,76.4,73.0,30.05,ENE,66,0.0,2.0,88,0.00,,,0.00,weatherlink.com 1.10,2013-07-13 17:25:00,
2013-07-13 13:40:00,76.6,73.0,30.05,NNE,18,0.0,2.0,87,0.00,,,0.00,weatherlink.com 1.10,2013-07-13 17:40:00,
2013-07-13 13:55:00,76.8,73.0,30.05,North,350,0.0,3.0,87,0.00,,,0.00,weatherlink.com 1.10,2013-07-13 17:55:00,
2013-07-13 14:10:00,77.6,73.0,30.05,East,86,1.0,3.0,86,0.00,,,0.00,weatherlink.com 1.10,2013-07-13 18:10:00,
2013-07-13 14:25:00,78.6,74.0,30.04,East,90,0.0,2.0,85,0.00,,,0.00,weatherlink.com 1.10,2013-07-13 18:25:00,
2013-07-13 14:40:00,79.8,74.0,30.04,NE,34,0.0,3.0,83,0.00,,,0.00,weatherlink.com 1.10,2013-07-13 18:40:00,
2013-07-13 14:56:00,80.2,74.0,30.04,ESE,115,1.0,3.0,82,0.00,,,0.00,weatherlink.com 1.10,2013-07-13 18:56:00,
2013-07-13 15:11:00,80.0,74.0,30.03,NNE,30,1.0,5.0,81,0.00,,,0.00,weatherlink.com 1.10,2013-07-13 19:11:00,
2013-07-13 15:26:00,80.3,74.0,30.04,East,100,1.0,3.0,81,0.00,,,0.00,weatherlink.com 1.10,2013-07-13 19:26:00,
2013-07-13 15:41:00,80.9,74.0,30.04,NE,46,1.0,3.0,80,0.00,,,0.00,weatherlink.com 1.10,2013-07-13 19:41:00,
2013-07-13 15:56:00,80.8,75.0,30.03,NE,46,0.0,1.0,81,0.00,,,0.00,weatherlink.com 1.10,2013-07-13 19:56:00,
2013-07-13 16:11:00,81.0,75.0,30.02,NE,44,0.0,3.0,81,0.00,,,0.00,weatherlink.com 1.10,2013-07-13 20:11:00,
2013-07-13 16:26:00,82.1,74.0,30.02,NW,311,0.0,4.0,77,0.00,,,0.00,weatherlink.com 1.10,2013-07-13 20:26:00,
2013-07-13 16:41:00,80.9,73.0,30.02,ENE,73,1.0,3.0,78,0.00,,,0.00,weatherlink.com 1.10,2013-07-13 20:41:00,
2013-07-13 16:56:00,80.3,74.0,30.02,NE,37,1.0,3.0,81,0.00,,,0.00,weatherlink.com 1.10,2013-07-13 20:56:00,
2013-07-13 17:11:00,81.0,75.0,30.02,SE,128,1.0,4.0,81,0.00,,,0.00,weatherlink.com 1.10,2013-07-13 21:11:00,
2013-07-13 17:26:00,81.0,75.0,30.02,SSE,151,0.0,2.0,81,0.00,,,0.00,weatherlink.com 1.10,2013-07-13 21:26:00,
2013-07-13 17:41:00,82.8,76.0,30.01,WSW,244,0.0,3.0,80,0.00,,,0.00,weatherlink.com 1.10,2013-07-13 21:41:00,
2013-07-13 17:56:00,82.4,76.0,30.01,ENE,71,2.0,2.0,81,0.00,,,0.00,weatherlink.com 1.10,2013-07-13 21:56:00,
2013-07-13 18:11:00,81.5,75.0,30.01,ENE,71,1.0,4.0,80,0.00,,,0.00,weatherlink.com 1.10,2013-07-13 22:11:00,
2013-07-13 18:26:00,80.5,75.0,30.01,ESE,119,0.0,3.0,83,0.00,,,0.00,weatherlink.com 1.10,2013-07-13 22:26:00,
2013-07-13 18:41:00,79.5,75.0,30.01,NNE,28,0.0,2.0,85,0.00,,,0.00,weatherlink.com 1.10,2013-07-13 22:41:00,
2013-07-13 18:56:00,78.3,74.0,30.02,East,86,0.0,2.0,87,0.00,,,0.00,weatherlink.com 1.10,2013-07-13 22:56:00,
2013-07-13 19:11:00,77.6,74.0,30.02,ENE,73,0.0,1.0,89,0.00,,,0.00,weatherlink.com 1.10,2013-07-13 23:11:00,
2013-07-13 19:26:00,77.4,74.0,30.02,SSE,161,0.0,2.0,90,0.00,,,0.00,weatherlink.com 1.10,2013-07-13 23:26:00,
2013-07-13 19:41:00,76.9,75.0,30.02,SSE,148,0.0,2.0,92,0.00,,,0.00,weatherlink.com 1.10,2013-07-13 23:41:00,
2013-07-13 19:56:00,76.2,74.0,30.03,North,355,0.0,1.0,94,0.00,,,0.00,weatherlink.com 1.10,2013-07-13 23:56:00,
2013-07-13 20:11:00,75.8,74.0,30.03,North,355,0.0,0.0,95,0.00,,,0.00,weatherlink.com 1.10,2013-07-14 00:11:00,
2013-07-13 20:26:00,75.6,74.0,30.03,NE,44,0.0,2.0,95,0.00,,,0.00,weatherlink.com 1.10,2013-07-14 00:26:00,
2013-07-13 20:41:00,75.2,74.0,30.04,NNE,29,0.0,1.0,95,0.00,,,0.00,weatherlink.com 1.10,2013-07-14 00:41:00,
2013-07-13 20:56:00,74.9,74.0,30.04,NNE,32,0.0,1.0,96,0.00,,,0.00,weatherlink.com 1.10,2013-07-14 00:56:00,
2013-07-13 21:11:00,74.8,74.0,30.04,NNE,32,0.0,0.0,96,0.00,,,0.00,weatherlink.com 1.10,2013-07-14 01:11:00,
2013-07-13 21:26:00,74.7,74.0,30.04,NNE,32,0.0,0.0,96,0.00,,,0.00,weatherlink.com 1.10,2013-07-14 01:26:00,
2013-07-13 21:41:00,74.6,74.0,30.04,NNE,32,0.0,0.0,97,0.00,,,0.00,weatherlink.com 1.10,2013-07-14 01:41:00,
2013-07-13 21:56:00,74.5,74.0,30.04,NNE,32,0.0,0.0,97,0.00,,,0.00,weatherlink.com 1.10,2013-07-14 01:56:00,
2013-07-13 22:11:00,74.4,74.0,30.04,NNE,32,0.0,0.0,97,0.00,,,0.00,weatherlink.com 1.10,2013-07-14 02:11:00,
2013-07-13 22:26:00,74.3,73.0,30.05,NNE,32,0.0,0.0,97,0.00,,,0.00,weatherlink.com 1.10,2013-07-14 02:26:00,
2013-07-13 22:41:00,74.2,73.0,30.04,NE,38,0.0,1.0,97,0.00,,,0.00,weatherlink.com 1.10,2013-07-14 02:41:00,
2013-07-13 22:56:00,74.1,73.0,30.04,WNW,299,0.0,2.0,97,0.00,,,0.00,weatherlink.com 1.10,2013-07-14 02:56:00,
2013-07-13 23:11:00,74.0,73.0,30.04,NNW,336,0.0,2.0,97,0.00,,,0.00,weatherlink.com 1.10,2013-07-14 03:11:00,
2013-07-13 23:26:00,73.8,73.0,30.04,NNE,29,0.0,3.0,98,0.00,,,0.00,weatherlink.com 1.10,2013-07-14 03:26:00,
2013-07-13 23:41:00,73.7,73.0,30.04,NE,53,0.0,2.0,98,0.00,,,0.00,weatherlink.com 1.10,2013-07-14 03:41:00,
2013-07-13 23:56:00,73.7,73.0,30.05,ENE,67,0.0,1.0,98,0.00,,,0.00,weatherlink.com 1.10,2013-07-14 03:56:00,